Regional Weather Roundup
Issued by NWS Green Bay, WI

Home | Current Version | Previous Version | Graphics & Text | Print | Product List | Glossary Off
Versions: 1 2 3 4 5 6 7 8 9 10 11 12 13 14 15 16 17 18 19 20 21 22 23 24 25 26 27 28 29 30 31 32 33 34 35 36 37 38 39 40 41 42 43 44 45 46 47 48 49 50

072
ASUS43 KGRB 301811
RWRGRB

NORTH-CENTRAL AND NORTHEAST WISCONSIN REGIONAL WEATHER ROUNDUP
NATIONAL WEATHER SERVICE GREEN BAY WI
100 PM CDT MON MAY 30 2016

WIZ005-009-010>012-018-019-301900-
NORTH CENTRAL WISCONSIN

CITY           SKY/WX    TMP DP  RH WIND       PRES   REMARKS
IRONWOOD       MOSUNNY   73  46  38 W14G26    29.96F
MANITOWISH WTR NOT AVBL
ARBOR VITAE    MOSUNNY   75  49  39 W9        30.01S
EAGLE RIVER      N/A     72  41  32 W13G18    30.01S
LAND O LAKES   MOSUNNY   73  44  34 W8        30.01S
RHINELANDER    PTSUNNY   75  46  35 W15       30.02S HAZE
PHILLIPS       PTSUNNY   72  49  44 W6        30.01S
ANTIGO         MOSUNNY   73  51  45 NW12G18   30.02F
TOMAHAWK       MOSUNNY   74  47  38 W10       30.03S
MERRILL        MOSUNNY   75  50  40 W9        30.02F
$$

WIZ013-073-301900-
NORTHEAST WISCONSIN

CITY           SKY/WX    TMP DP  RH WIND       PRES   REMARKS
IRON MOUNTAIN  MOSUNNY   77  44  30 NW15G23   29.97S
MARINETTE      MOSUNNY   77  48  35 NW10G16   29.99R
OCONTO         PTSUNNY   78  50  37 W9        29.99S
$$

WIZ017-030-035>037-045-301900-
CENTRAL WISCONSIN

CITY           SKY/WX    TMP DP  RH WIND       PRES   REMARKS
MEDFORD        CLOUDY    73  52  48 SW8       30.03S
WAUSAU         SUNNY     78  49  35 W13       30.01S
MOSINEE        SUNNY     75  48  38 SW10      30.04S
MARSHFIELD     SUNNY     77  47  34 W9        30.03S
WISC RAPIDS    SUNNY     79  43  27 W6        30.04S
STEVENS POINT  SUNNY     75  46  35 W7G17     30.03F
WAUPACA        SUNNY     80  45  28 NW7       30.02S
SHAWANO        MOSUNNY   80  46  30 NW12G17   30.01S
CLINTONVILLE   MOSUNNY   77  45  31 NW10      30.01S
WAUTOMA        MOSUNNY  N/A N/A N/A W6        30.02F
$$

WIZ038-039-048-051-301900-
FOX VALLEY

CITY           SKY/WX    TMP DP  RH WIND       PRES   REMARKS
NWS GREEN BAY  MOSUNNY   78  53  41 W12G18    30.00S
APPLETON       PTSUNNY   75  43  31 W5        30.01S
OSHKOSH        MOSUNNY   77  51  40 W7        30.01F
FOND DU LAC    SUNNY     77  55  46 NW7       30.02F
$$

WIZ022-050-052-301900-
EAST CENTRAL WISCONSIN

CITY           SKY/WX    TMP DP  RH WIND       PRES   REMARKS
EPHRAIM        FAIR      73  52  46 NW6       29.98S
STURGEON BAY   NOT AVBL
MANITOWOC      SUNNY     78  48  34 W13G18    30.01S
SHEBOYGAN      SUNNY     77  53  43 W12       30.01F
$$

LMZ563-521-522-541>543-301900-
LAKESHORE

STATION/POSITION TIME  TEMP    WIND        PRES    VSBY  WAVE
                       AIR SEA DIR/SP/G                  HT/PER
                 (UTC) (F)     (DEG/KT/KT) (MB)    (MI)  (FT/S)
SHEBOYGAN LKSHOR 1800   63     180/  8/ 10 1016.6F
KEWAUNEE LKSHORE 1700   75     310/  7/ 11 1015.3S
NORTHPORT PIER   1700   70     310/  7/ 11 1014.9S
N MID LAKE BUOY  1750   53 49  200/  6/  6 1014.9F         1
CHAMBERS ISLAND  1700   74     260/  6/  9 1014.9F
MENOMINEE LKSHOR 1700   71     320/  9/ 13 1013.9F
$$




USA.gov is the U.S. government's official web portal to all federal, state and local government web resources and services.